Location: Alafon
(8.4500°N, 4.2333°E)
Time: 15:11:58
(UTC+00:00)

Vanguard 1 Rocket - Pass Details

Date: 27 July 2021
Orbit: 650 x 4226 km, 34.3° (Epoch: 23 September)

Event Time Altitude Azimuth Distance (km) Brightness Sun altitude
Rises 20:19:50 0° 276° (W) 3,043 11.0 -31.5°
Reaches altitude 10° 20:22:21 10° 259° (W) 2,281 10.0 -32.0°
Enters shadow 20:25:21 21° 222° (SW) 1,868 9.0 -32.7°
